Weather History for Wauseon Fulton County Airport, OH

Change the Weather History Date:

Sunday, March 23, 2014

  Actual Average (KTOL) Record (KTOL)
Temperature  
Mean Temperature 26 °F 40 °F  
Max Temperature 32 °F 50 °F 73 °F (1988)
Min Temperature 19 °F 31 °F 5 °F (1888)
Degree Days  
Heating Degree Days 40 25  
Month to date heating degree days 666  
Since 1 July heating degree days 5242  
Cooling Degree Days 0 0  
Month to date cooling degree days 0  
Year to date cooling degree days 0  
Moisture  
Dew Point 11 °F    
Average Humidity 56    
Maximum Humidity 75    
Minimum Humidity 47    
Precipitation  
Precipitation 0.00 in 0.08 in 0.75 in (1993)
Month to date precipitation 1.77  
Year to date precipitation 5.89  
Snow  
Snow 0.00 in 0.10 in - ()
Month to date snowfall 4.7  
Since 1 July snowfall 35.2  
Snow Depth -    
Sea Level Pressure  
Sea Level Pressure 30.31 in    
Wind  
Wind Speed 12 mph (NNW)    
Max Wind Speed 18 mph    
Max Gust Speed 30 mph    
Visibility 10 miles    
Events      
T = Trace of Precipitation, MM = Missing Value Source: NWS Daily Summary

Daily Weather History Graph

Daily Weather History Graph

Search for Another Location

Airport:

Trip Planner

Search our weather history database for the weather conditions in past years. The results will help you decide how hot, cold, wet, or windy it might be!

Date:

Astronomy

Mar. 23, 2014 Rise Set
Actual Time 7:34 AM EDT 7:52 PM EDT
Civil Twilight 7:07 AM EDT 8:19 PM EDT
Nautical Twilight 6:34 AM EDT 8:52 PM EDT
Astronomical Twilight 6:01 AM EDT 9:25 PM EDT
Moon 2:11 AM EDT (3/23) 12:11 PM EDT (3/23)
Length of Visible Light 13h 12m
Length of Day
12h 17m
Waning Gibbous, 55% of the Moon is Illuminated
Mar 23
Waning Gibbous
Mar 23
Last Quarter
Mar 30
New
Apr 7
First Quarter
Apr 15
Full

Hourly Weather History & Observations

Time (EDT) Temp. Windchill Dew Point Humidity Pressure Visibility Wind Dir Wind Speed Gust Speed Precip Events Conditions
12:15 AM 32.0 °F 23.0 °F 23.0 °F 69% 30.21 in 10.0 mi NW 11.5 mph - N/A   Mostly Cloudy
12:35 AM 32.0 °F 22.5 °F 24.8 °F 75% 30.21 in 10.0 mi NNW 12.7 mph - N/A   Overcast
12:55 AM 30.2 °F 19.3 °F 21.2 °F 69% 30.21 in 10.0 mi North 15.0 mph - N/A   Overcast
1:15 AM 30.2 °F 21.3 °F 23.0 °F 75% 30.22 in 10.0 mi NNW 10.4 mph - N/A   Mostly Cloudy
1:35 AM 30.2 °F 18.1 °F 17.6 °F 60% 30.23 in 10.0 mi NNW 18.4 mph 24.2 mph N/A   Partly Cloudy
1:55 AM 28.4 °F 17.0 °F 17.6 °F 64% 30.23 in 10.0 mi NNW 15.0 mph 20.7 mph N/A   Scattered Clouds
2:15 AM 28.4 °F 17.0 °F 15.8 °F 59% 30.24 in 10.0 mi North 15.0 mph - N/A   Partly Cloudy
2:35 AM 28.4 °F 17.5 °F 12.2 °F 51% 30.25 in 10.0 mi NNW 13.8 mph - N/A   Scattered Clouds
2:55 AM 26.6 °F 14.7 °F 14.0 °F 59% 30.25 in 10.0 mi North 15.0 mph - N/A   Scattered Clouds
3:15 AM 26.6 °F 15.7 °F 14.0 °F 59% 30.25 in 10.0 mi North 12.7 mph - N/A   Clear
3:35 AM 26.6 °F 16.8 °F 12.2 °F 55% 30.25 in 10.0 mi North 10.4 mph 18.4 mph N/A   Clear
3:55 AM 24.8 °F 13.4 °F 10.4 °F 54% 30.26 in 10.0 mi North 12.7 mph - N/A   Clear
4:15 AM 24.8 °F 13.4 °F 12.2 °F 59% 30.25 in 10.0 mi North 12.7 mph - N/A   Clear
4:35 AM 24.8 °F 12.9 °F 10.4 °F 54% 30.27 in 10.0 mi North 13.8 mph 20.7 mph N/A   Clear
4:55 AM 23.0 °F 11.1 °F 12.2 °F 63% 30.27 in 10.0 mi North 12.7 mph - N/A   Clear
5:15 AM 23.0 °F 10.1 °F 10.4 °F 59% 30.28 in 10.0 mi NNE 15.0 mph - N/A   Partly Cloudy
5:35 AM 23.0 °F 11.7 °F 8.6 °F 54% 30.28 in 10.0 mi NNE 11.5 mph 18.4 mph N/A   Mostly Cloudy
5:55 AM 23.0 °F 10.6 °F 8.6 °F 54% 30.29 in 10.0 mi North 13.8 mph - N/A   Mostly Cloudy
6:15 AM 21.2 °F 8.3 °F 8.6 °F 58% 30.30 in 10.0 mi North 13.8 mph - N/A   Mostly Cloudy
6:35 AM 21.2 °F 8.9 °F 8.6 °F 58% 30.30 in 10.0 mi North 12.7 mph - N/A   Scattered Clouds
6:55 AM 21.2 °F 9.5 °F 8.6 °F 58% 30.31 in 10.0 mi NNW 11.5 mph 18.4 mph N/A   Mostly Cloudy
7:15 AM 21.2 °F 9.5 °F 8.6 °F 58% 30.32 in 10.0 mi North 11.5 mph - N/A   Overcast
7:35 AM 21.2 °F 8.3 °F 8.6 °F 58% 30.33 in 10.0 mi North 13.8 mph - N/A   Mostly Cloudy
7:55 AM 21.2 °F 12.6 °F 10.4 °F 63% 30.34 in 10.0 mi North 6.9 mph 15.0 mph N/A   Clear
8:15 AM 21.2 °F 9.5 °F 8.6 °F 58% 30.34 in 10.0 mi North 11.5 mph - N/A   Clear
8:35 AM 21.2 °F 9.5 °F 8.6 °F 58% 30.34 in 10.0 mi North 11.5 mph - N/A   Clear
8:55 AM 19.4 °F 7.9 °F 10.4 °F 68% 30.34 in 10.0 mi North 10.4 mph - N/A   Clear
9:15 AM 21.2 °F 9.5 °F 8.6 °F 58% 30.34 in 10.0 mi North 11.5 mph - N/A   Clear
9:35 AM 21.2 °F 10.1 °F 10.4 °F 63% 30.35 in 10.0 mi North 10.4 mph - N/A   Clear
9:55 AM 21.2 °F 10.9 °F 8.6 °F 58% 30.35 in 10.0 mi NNW 9.2 mph - N/A   Clear
10:15 AM 21.2 °F 7.8 °F 8.6 °F 58% 30.35 in 10.0 mi NNW 15.0 mph - N/A   Clear
10:35 AM 21.2 °F 10.1 °F 8.6 °F 58% 30.35 in 10.0 mi North 10.4 mph 17.3 mph N/A   Clear
10:55 AM 23.0 °F 11.1 °F 8.6 °F 54% 30.35 in 10.0 mi NNW 12.7 mph 18.4 mph N/A   Clear
11:15 AM 23.0 °F 10.6 °F 8.6 °F 54% 30.36 in 10.0 mi NNW 13.8 mph - N/A   Clear
11:35 AM 23.0 °F 11.7 °F 8.6 °F 54% 30.36 in 10.0 mi NNW 11.5 mph 18.4 mph N/A   Clear
11:55 AM 23.0 °F 13.1 °F 10.4 °F 59% 30.36 in 10.0 mi NNW 9.2 mph 16.1 mph N/A   Clear
12:15 PM 24.8 °F 13.4 °F 10.4 °F 54% 30.36 in 10.0 mi NNW 12.7 mph 18.4 mph N/A   Clear
12:35 PM 24.8 °F 12.9 °F 8.6 °F 50% 30.35 in 10.0 mi NW 13.8 mph 21.9 mph N/A   Clear
12:55 PM 24.8 °F 11.9 °F 8.6 °F 50% 30.35 in 10.0 mi NW 16.1 mph - N/A   Clear
1:15 PM 24.8 °F 12.4 °F 8.6 °F 50% 30.34 in 10.0 mi NNW 15.0 mph 21.9 mph N/A   Clear
1:35 PM 24.8 °F 12.4 °F 8.6 °F 50% 30.34 in 10.0 mi WNW 15.0 mph 21.9 mph N/A   Clear
1:55 PM 26.6 °F 17.5 °F 8.6 °F 47% 30.33 in 10.0 mi NNW 9.2 mph 19.6 mph N/A   Clear
2:15 PM 26.6 °F 16.2 °F 10.4 °F 51% 30.32 in 10.0 mi NNW 11.5 mph 18.4 mph N/A   Partly Cloudy
2:35 PM 26.6 °F 16.2 °F 10.4 °F 51% 30.32 in 10.0 mi North 11.5 mph 18.4 mph N/A   Partly Cloudy
2:55 PM 28.4 °F 16.2 °F 12.2 °F 51% 30.31 in 10.0 mi NW 17.3 mph - N/A   Scattered Clouds
3:15 PM 26.6 °F 14.7 °F 10.4 °F 51% 30.31 in 10.0 mi NNW 15.0 mph 23.0 mph N/A   Mostly Cloudy
3:35 PM 28.4 °F 19.1 °F 10.4 °F 47% 30.31 in 10.0 mi NNW 10.4 mph 21.9 mph N/A   Mostly Cloudy
3:55 PM 26.6 °F 16.2 °F 10.4 °F 51% 30.30 in 10.0 mi NNW 11.5 mph 19.6 mph N/A   Mostly Cloudy
4:15 PM 28.4 °F 17.0 °F 10.4 °F 47% 30.30 in 10.0 mi NW 15.0 mph 29.9 mph N/A   Mostly Cloudy
4:35 PM 28.4 °F 18.0 °F 10.4 °F 47% 30.30 in 10.0 mi NNW 12.7 mph 21.9 mph N/A   Mostly Cloudy
4:55 PM 28.4 °F 18.0 °F 10.4 °F 47% 30.30 in 10.0 mi NNW 12.7 mph - N/A   Overcast
5:15 PM 26.6 °F 17.5 °F 10.4 °F 51% 30.30 in 10.0 mi NNW 9.2 mph - N/A   Overcast
5:35 PM 28.4 °F 18.5 °F 10.4 °F 47% 30.30 in 10.0 mi NW 11.5 mph - N/A   Overcast
5:55 PM 28.4 °F 17.5 °F 10.4 °F 47% 30.30 in 10.0 mi NNW 13.8 mph - N/A   Mostly Cloudy
6:15 PM 26.6 °F 16.8 °F 10.4 °F 51% 30.30 in 10.0 mi NW 10.4 mph - N/A   Scattered Clouds
6:35 PM 26.6 °F 16.2 °F 10.4 °F 51% 30.30 in 10.0 mi NW 11.5 mph 19.6 mph N/A   Mostly Cloudy
6:55 PM 26.6 °F 15.2 °F 10.4 °F 51% 30.31 in 10.0 mi NW 13.8 mph - N/A   Scattered Clouds
7:15 PM 26.6 °F 16.2 °F 10.4 °F 51% 30.31 in 10.0 mi NW 11.5 mph - N/A   Mostly Cloudy
7:35 PM 26.6 °F 19.1 °F 8.6 °F 47% 30.31 in 10.0 mi NNW 6.9 mph - N/A   Overcast
7:55 PM 26.6 °F 18.2 °F 10.4 °F 51% 30.31 in 10.0 mi NW 8.1 mph - N/A   Overcast
8:15 PM 26.6 °F 19.1 °F 10.4 °F 51% 30.32 in 10.0 mi NNW 6.9 mph - N/A   Overcast
8:35 PM 26.6 °F 20.0 °F 10.4 °F 51% 30.32 in 10.0 mi NNW 5.8 mph - N/A   Overcast
8:55 PM 26.6 °F 16.8 °F 10.4 °F 51% 30.32 in 10.0 mi NNW 10.4 mph - N/A   Overcast
9:15 PM 26.6 °F 19.1 °F 10.4 °F 51% 30.32 in 10.0 mi NNW 6.9 mph - N/A   Overcast
9:35 PM 26.6 °F 20.0 °F 10.4 °F 51% 30.33 in 10.0 mi NNW 5.8 mph - N/A   Overcast
9:55 PM 26.6 °F 18.2 °F 12.2 °F 55% 30.33 in 10.0 mi WNW 8.1 mph - N/A   Overcast
10:15 PM 24.8 °F 16.9 °F 12.2 °F 59% 30.33 in 10.0 mi NW 6.9 mph - N/A   Overcast
10:35 PM 24.8 °F 14.6 °F 10.4 °F 54% 30.34 in 10.0 mi NW 10.4 mph - N/A   Overcast
10:55 PM 24.8 °F 13.4 °F 10.4 °F 54% 30.34 in 10.0 mi NW 12.7 mph - N/A   Scattered Clouds
11:15 PM 23.0 °F 13.1 °F 10.4 °F 59% 30.34 in 10.0 mi NW 9.2 mph - N/A   Clear
11:35 PM 23.0 °F 13.9 °F 12.2 °F 63% 30.34 in 10.0 mi NW 8.1 mph - N/A   Clear
11:55 PM 23.0 °F 13.9 °F 12.2 °F 63% 30.34 in 10.0 mi NW 8.1 mph - N/A   Clear